OneWeb SL0588

operational
NORAD ID: 55153 Int'l Des: 2023-004 Owner: ONEWEBN Country: UK Constellation: oneweb
LEOCIRCULARPOLARONEWEB_TYPE

OneWeb SL0588について

説明を読み込み中...

リアルタイム位置

3D地球を読み込み中...

次回通過

高度履歴

Altitude vs Time

uPlot chart will show altitude changes over time

軌道要素

1 55153U 23004P 25258.13129028 .00000004 00000-0 -22540-4 0 9998
2 55153 87.9181 30.1101 0002096 107.1387 252.9975 13.18684605133441
Epoch: Sep 15, 2025 • Age: 23 hours

現在のステータス

高度 1194.1 km
速度 7.26 km/s
衛星直下点 39.48°N, 172.76°W
打ち上げ日 Jan 10, 2023
運用期間 2.6 years
タイプ internet

技術仕様

分類 Payload
質量 148.00 kg
乾燥質量 140.00 kg
総質量 148.00 kg
長さ 1.30 m
直径 1.00 m
スパン 5.00 m
形状 Trapezoid+2 pan
製造者 ONEWUS
バスタイプ ARROW
フェーズステータス In Orbit
所有者/国 ONEWEBN/UK

大規模コンステレーション

Loading constellations...